Year,Month,Day,Hour,Minute,Value (Times are PST for temperature in C)
2010,07,09,00,00,20.40
2010,07,09,00,01,20.40
2010,07,09,00,02,20.40
2010,07,09,00,03,20.40
2010,07,09,00,04,20.40
2010,07,09,00,05,20.30
2010,07,09,00,06,20.30
2010,07,09,00,07,20.30
2010,07,09,00,08,20.30
2010,07,09,00,09,20.30
2010,07,09,00,10,20.30
2010,07,09,00,11,20.30
2010,07,09,00,12,20.20
2010,07,09,00,13,20.20
2010,07,09,00,14,20.20
2010,07,09,00,15,20.20
2010,07,09,00,16,20.20
2010,07,09,00,17,20.10
2010,07,09,00,18,20.10
2010,07,09,00,19,20.00
2010,07,09,00,20,20.00
2010,07,09,00,21,20.00
2010,07,09,00,22,19.90
2010,07,09,00,23,19.90
2010,07,09,00,24,19.90
2010,07,09,00,25,19.90
2010,07,09,00,26,19.80
2010,07,09,00,27,19.80
2010,07,09,00,28,19.80
2010,07,09,00,29,19.80
2010,07,09,00,30,19.80
2010,07,09,00,31,19.70
2010,07,09,00,32,19.70
2010,07,09,00,33,19.70
2010,07,09,00,34,19.70
2010,07,09,00,35,19.80
2010,07,09,00,36,19.80
2010,07,09,00,37,19.80
2010,07,09,00,38,19.80
2010,07,09,00,39,19.90
2010,07,09,00,40,19.90
2010,07,09,00,41,19.90
2010,07,09,00,42,19.90
2010,07,09,00,43,19.90
2010,07,09,00,44,19.90
2010,07,09,00,45,19.90
2010,07,09,00,46,19.90
2010,07,09,00,47,19.90
2010,07,09,00,48,19.80
2010,07,09,00,49,19.80
2010,07,09,00,50,19.80
2010,07,09,00,51,19.80
2010,07,09,00,52,19.80
2010,07,09,00,53,19.80
2010,07,09,00,54,19.80
2010,07,09,00,55,19.80
2010,07,09,00,56,19.90
2010,07,09,00,57,19.90
2010,07,09,00,58,19.90
2010,07,09,00,59,19.90
2010,07,09,01,00,19.90
2010,07,09,01,01,19.90
2010,07,09,01,02,19.80
2010,07,09,01,03,19.80
2010,07,09,01,04,19.90
2010,07,09,01,05,20.10
2010,07,09,01,06,20.30
2010,07,09,01,07,20.40
2010,07,09,01,08,20.40
2010,07,09,01,09,20.50
2010,07,09,01,10,20.50
2010,07,09,01,11,20.50
2010,07,09,01,12,20.60
2010,07,09,01,13,20.60
2010,07,09,01,14,20.60
2010,07,09,01,15,20.60
2010,07,09,01,16,20.60
2010,07,09,01,17,20.70
2010,07,09,01,18,20.70
2010,07,09,01,19,20.70
2010,07,09,01,20,20.70
2010,07,09,01,21,20.70
2010,07,09,01,22,20.60
2010,07,09,01,23,20.60
2010,07,09,01,24,20.50
2010,07,09,01,25,20.40
2010,07,09,01,26,20.30
2010,07,09,01,27,20.30
2010,07,09,01,28,20.20
2010,07,09,01,29,20.10
2010,07,09,01,30,20.00
2010,07,09,01,31,20.00
2010,07,09,01,32,19.90
2010,07,09,01,33,19.90
2010,07,09,01,34,19.90
2010,07,09,01,35,19.90
2010,07,09,01,36,19.90
2010,07,09,01,37,19.90
2010,07,09,01,38,19.90
2010,07,09,01,39,20.00
2010,07,09,01,40,20.00
2010,07,09,01,41,20.00
2010,07,09,01,42,20.00
2010,07,09,01,43,19.90
2010,07,09,01,44,19.90
2010,07,09,01,45,19.90
2010,07,09,01,46,19.80
2010,07,09,01,47,19.80
2010,07,09,01,48,19.80
2010,07,09,01,49,19.80
2010,07,09,01,50,19.80
2010,07,09,01,51,19.80
2010,07,09,01,52,19.80
2010,07,09,01,53,19.80
2010,07,09,01,54,19.80
2010,07,09,01,55,19.80
2010,07,09,01,56,19.90
2010,07,09,01,57,20.00
2010,07,09,01,58,20.00
2010,07,09,01,59,20.10
2010,07,09,02,00,20.10
2010,07,09,02,01,20.20
2010,07,09,02,02,20.20
2010,07,09,02,03,20.10
2010,07,09,02,04,20.10
2010,07,09,02,05,20.00
2010,07,09,02,06,20.00
2010,07,09,02,07,20.00
2010,07,09,02,08,20.00
2010,07,09,02,09,19.90
2010,07,09,02,10,19.90
2010,07,09,02,11,20.00
2010,07,09,02,12,20.00
2010,07,09,02,13,20.10
2010,07,09,02,14,20.10
2010,07,09,02,15,20.10
2010,07,09,02,16,20.00
2010,07,09,02,17,20.00
2010,07,09,02,18,20.00
2010,07,09,02,19,19.90
2010,07,09,02,20,19.90
2010,07,09,02,21,19.90
2010,07,09,02,22,19.90
2010,07,09,02,23,19.90
2010,07,09,02,24,19.90
2010,07,09,02,25,19.90
2010,07,09,02,26,19.80
2010,07,09,02,27,19.90
2010,07,09,02,28,19.90
2010,07,09,02,29,19.90
2010,07,09,02,30,19.90
2010,07,09,02,31,19.90
2010,07,09,02,32,19.90
2010,07,09,02,33,19.90
2010,07,09,02,34,19.80
2010,07,09,02,35,19.80
2010,07,09,02,36,19.80
2010,07,09,02,37,19.80
2010,07,09,02,38,19.80
2010,07,09,02,39,19.80
2010,07,09,02,40,19.80
2010,07,09,02,41,19.80
2010,07,09,02,42,19.80
2010,07,09,02,43,19.80
2010,07,09,02,44,19.80
2010,07,09,02,45,19.80
2010,07,09,02,46,19.80
2010,07,09,02,47,19.70
2010,07,09,02,48,19.70
2010,07,09,02,49,19.70
2010,07,09,02,50,19.70
2010,07,09,02,51,19.70
2010,07,09,02,52,19.60
2010,07,09,02,53,19.60
2010,07,09,02,54,19.60
2010,07,09,02,55,19.60
2010,07,09,02,56,19.60
2010,07,09,02,57,19.60
2010,07,09,02,58,19.60
2010,07,09,02,59,19.60
2010,07,09,03,00,19.60
2010,07,09,03,01,19.60
2010,07,09,03,02,19.60
2010,07,09,03,03,19.60
2010,07,09,03,04,19.50
2010,07,09,03,05,19.50
2010,07,09,03,06,19.50
2010,07,09,03,07,19.50
2010,07,09,03,08,19.40
2010,07,09,03,09,19.40
2010,07,09,03,10,19.40
2010,07,09,03,11,19.40
2010,07,09,03,12,19.30
2010,07,09,03,13,19.30
2010,07,09,03,14,19.30
2010,07,09,03,15,19.30
2010,07,09,03,16,19.20
2010,07,09,03,17,19.20
2010,07,09,03,18,19.20
2010,07,09,03,19,19.20
2010,07,09,03,20,19.30
2010,07,09,03,21,19.30
2010,07,09,03,22,19.40
2010,07,09,03,23,19.50
2010,07,09,03,24,19.60
2010,07,09,03,25,19.70
2010,07,09,03,26,19.80
2010,07,09,03,27,19.80
2010,07,09,03,28,19.80
2010,07,09,03,29,19.80
2010,07,09,03,30,19.80
2010,07,09,03,31,19.80
2010,07,09,03,32,19.80
2010,07,09,03,33,19.80
2010,07,09,03,34,19.70
2010,07,09,03,35,19.70
2010,07,09,03,36,19.60
2010,07,09,03,37,19.60
2010,07,09,03,38,19.60
2010,07,09,03,39,19.60
2010,07,09,03,40,19.60
2010,07,09,03,41,19.60
2010,07,09,03,42,19.60
2010,07,09,03,43,19.70
2010,07,09,03,44,19.90
2010,07,09,03,45,20.10
2010,07,09,03,46,20.20
2010,07,09,03,47,20.40
2010,07,09,03,48,20.60
2010,07,09,03,49,20.70
2010,07,09,03,50,20.80
2010,07,09,03,51,20.90
2010,07,09,03,52,21.00
2010,07,09,03,53,21.10
2010,07,09,03,54,21.10
2010,07,09,03,55,21.10
2010,07,09,03,56,21.20
2010,07,09,03,57,21.20
2010,07,09,03,58,21.20
2010,07,09,03,59,21.30
2010,07,09,04,00,21.20
2010,07,09,04,01,21.20
2010,07,09,04,02,21.10
2010,07,09,04,03,21.00
2010,07,09,04,04,21.00
2010,07,09,04,05,21.00
2010,07,09,04,06,20.90
2010,07,09,04,07,21.00
2010,07,09,04,08,21.00
2010,07,09,04,09,21.00
2010,07,09,04,10,21.10
2010,07,09,04,11,21.10
2010,07,09,04,12,21.20
2010,07,09,04,13,21.20
2010,07,09,04,14,21.30
2010,07,09,04,15,21.30
2010,07,09,04,16,21.30
2010,07,09,04,17,21.30
2010,07,09,04,18,21.20
2010,07,09,04,19,21.20
2010,07,09,04,20,21.20
2010,07,09,04,21,21.20
2010,07,09,04,22,21.20
2010,07,09,04,23,21.20
2010,07,09,04,24,21.20
2010,07,09,04,25,21.20
2010,07,09,04,26,21.20
2010,07,09,04,27,21.20
2010,07,09,04,28,21.30
2010,07,09,04,29,21.30
2010,07,09,04,30,21.40
2010,07,09,04,31,21.50
2010,07,09,04,32,21.50
2010,07,09,04,33,21.60
2010,07,09,04,34,21.70
2010,07,09,04,35,21.70
2010,07,09,04,36,21.70
2010,07,09,04,37,21.70
2010,07,09,04,38,21.70
2010,07,09,04,39,21.70
2010,07,09,04,40,21.70
2010,07,09,04,41,21.70
2010,07,09,04,42,21.70
2010,07,09,04,43,21.60
2010,07,09,04,44,21.50
2010,07,09,04,45,21.40
2010,07,09,04,46,21.50
2010,07,09,04,47,21.50
2010,07,09,04,48,21.40
2010,07,09,04,49,21.40
2010,07,09,04,50,21.40
2010,07,09,04,51,21.30
2010,07,09,04,52,21.30
2010,07,09,04,53,21.30
2010,07,09,04,54,21.30
2010,07,09,04,55,21.40
2010,07,09,04,56,21.40
2010,07,09,04,57,21.30
2010,07,09,04,58,21.30
2010,07,09,04,59,21.20
2010,07,09,05,00,21.20
2010,07,09,05,01,21.10
2010,07,09,05,02,21.00
2010,07,09,05,03,20.90
2010,07,09,05,04,20.80
2010,07,09,05,05,20.80
2010,07,09,05,06,20.70
2010,07,09,05,07,20.70
2010,07,09,05,08,20.60
2010,07,09,05,09,20.60
2010,07,09,05,10,20.50
2010,07,09,05,11,20.40
2010,07,09,05,12,20.40
2010,07,09,05,13,20.30
2010,07,09,05,14,20.20
2010,07,09,05,15,20.20
2010,07,09,05,16,20.20
2010,07,09,05,17,20.20
2010,07,09,05,18,20.10
2010,07,09,05,19,20.10
2010,07,09,05,20,20.10
2010,07,09,05,21,20.00
2010,07,09,05,22,19.90
2010,07,09,05,23,19.90
2010,07,09,05,24,19.80
2010,07,09,05,25,19.80
2010,07,09,05,26,19.70
2010,07,09,05,27,19.70
2010,07,09,05,28,19.60
2010,07,09,05,29,19.50
2010,07,09,05,30,19.50
2010,07,09,05,31,19.60
2010,07,09,05,32,19.60
2010,07,09,05,33,19.60
2010,07,09,05,34,19.50
2010,07,09,05,35,19.50
2010,07,09,05,36,19.50
2010,07,09,05,37,19.50
2010,07,09,05,38,19.60
2010,07,09,05,39,19.70
2010,07,09,05,40,19.70
2010,07,09,05,41,19.80
2010,07,09,05,42,20.00
2010,07,09,05,43,20.00
2010,07,09,05,44,20.10
2010,07,09,05,45,20.20
2010,07,09,05,46,20.20
2010,07,09,05,47,20.10
2010,07,09,05,48,20.10
2010,07,09,05,49,20.10
2010,07,09,05,50,20.10
2010,07,09,05,51,20.10
2010,07,09,05,52,20.10
2010,07,09,05,53,20.10
2010,07,09,05,54,20.00
2010,07,09,05,55,20.00
2010,07,09,05,56,20.00
2010,07,09,05,57,20.00
2010,07,09,05,58,20.00
2010,07,09,05,59,20.00
2010,07,09,06,00,19.90
2010,07,09,06,01,19.90
2010,07,09,06,02,19.80
2010,07,09,06,03,19.80
2010,07,09,06,04,19.80
2010,07,09,06,05,19.70
2010,07,09,06,06,19.70
2010,07,09,06,07,19.70
2010,07,09,06,08,19.60
2010,07,09,06,09,19.60
2010,07,09,06,10,19.60
2010,07,09,06,11,19.60
2010,07,09,06,12,19.60
2010,07,09,06,13,19.60
2010,07,09,06,14,19.60
2010,07,09,06,15,19.60
2010,07,09,06,16,19.60
2010,07,09,06,17,19.60
2010,07,09,06,18,19.60
2010,07,09,06,19,19.60
2010,07,09,06,20,19.60
2010,07,09,06,21,19.60
2010,07,09,06,22,19.60
2010,07,09,06,23,19.70
2010,07,09,06,24,19.70
2010,07,09,06,25,19.70
2010,07,09,06,26,19.80
2010,07,09,06,27,19.80
2010,07,09,06,28,19.90
2010,07,09,06,29,20.00
2010,07,09,06,30,20.00
2010,07,09,06,31,20.10
2010,07,09,06,32,20.20
2010,07,09,06,33,20.20
2010,07,09,06,34,20.20
2010,07,09,06,35,20.30
2010,07,09,06,36,20.30
2010,07,09,06,37,20.40
2010,07,09,06,38,20.40
2010,07,09,06,39,20.50
2010,07,09,06,40,20.50
2010,07,09,06,41,20.60
2010,07,09,06,42,20.60
2010,07,09,06,43,20.70
2010,07,09,06,44,20.70
2010,07,09,06,45,20.70
2010,07,09,06,46,20.80
2010,07,09,06,47,20.90
2010,07,09,06,48,21.00
2010,07,09,06,49,21.10
2010,07,09,06,50,21.20
2010,07,09,06,51,21.30
2010,07,09,06,52,21.30
2010,07,09,06,53,21.40
2010,07,09,06,54,21.50
2010,07,09,06,55,21.60
2010,07,09,06,56,21.60
2010,07,09,06,57,21.70
2010,07,09,06,58,21.70
2010,07,09,06,59,21.70
2010,07,09,07,00,21.80
2010,07,09,07,01,21.80
2010,07,09,07,02,21.80
2010,07,09,07,03,21.80
2010,07,09,07,04,21.90
2010,07,09,07,05,22.00
2010,07,09,07,06,22.10
2010,07,09,07,07,22.20
2010,07,09,07,08,22.20
2010,07,09,07,09,22.30
2010,07,09,07,10,22.30
2010,07,09,07,11,22.40
2010,07,09,07,12,22.40
2010,07,09,07,13,22.40
2010,07,09,07,14,22.40
2010,07,09,07,15,22.40
2010,07,09,07,16,22.40
2010,07,09,07,17,22.40
2010,07,09,07,18,22.40
2010,07,09,07,19,22.40
2010,07,09,07,20,22.40
2010,07,09,07,21,22.40
2010,07,09,07,22,22.50
2010,07,09,07,23,22.50
2010,07,09,07,24,22.50
2010,07,09,07,25,22.50
2010,07,09,07,26,22.50
2010,07,09,07,27,22.60
2010,07,09,07,28,22.60
2010,07,09,07,29,22.60
2010,07,09,07,30,22.70
2010,07,09,07,31,22.70
2010,07,09,07,32,22.80
2010,07,09,07,33,22.80
2010,07,09,07,34,22.90
2010,07,09,07,35,23.00
2010,07,09,07,36,23.00
2010,07,09,07,37,23.10
2010,07,09,07,38,23.20
2010,07,09,07,39,23.20
2010,07,09,07,40,23.20
2010,07,09,07,41,23.20
2010,07,09,07,42,23.20
2010,07,09,07,43,23.10
2010,07,09,07,44,23.20
2010,07,09,07,45,23.30
2010,07,09,07,46,23.40
2010,07,09,07,47,23.50
2010,07,09,07,48,23.70
2010,07,09,07,49,23.80
2010,07,09,07,50,23.90
2010,07,09,07,51,24.10
2010,07,09,07,52,24.10
2010,07,09,07,53,24.20
2010,07,09,07,54,24.30
2010,07,09,07,55,24.30
2010,07,09,07,56,24.30
2010,07,09,07,57,24.30
2010,07,09,07,58,24.30
2010,07,09,07,59,24.30
2010,07,09,08,00,24.30
2010,07,09,08,01,24.30
2010,07,09,08,02,24.30
2010,07,09,08,03,24.30
2010,07,09,08,04,24.40
2010,07,09,08,05,24.30
2010,07,09,08,06,24.30
2010,07,09,08,07,24.30
2010,07,09,08,08,24.30
2010,07,09,08,09,24.20
2010,07,09,08,10,24.20
2010,07,09,08,11,24.10
2010,07,09,08,12,24.10
2010,07,09,08,13,24.10
2010,07,09,08,14,24.20
2010,07,09,08,15,24.20
2010,07,09,08,16,24.30
2010,07,09,08,17,24.30
2010,07,09,08,18,24.40
2010,07,09,08,19,24.50
2010,07,09,08,20,24.60
2010,07,09,08,21,24.70
2010,07,09,08,22,24.80
2010,07,09,08,23,24.90
2010,07,09,08,24,24.90
2010,07,09,08,25,24.90
2010,07,09,08,26,24.90
2010,07,09,08,27,25.00
2010,07,09,08,28,24.90
2010,07,09,08,29,24.80
2010,07,09,08,30,24.80
2010,07,09,08,31,24.70
2010,07,09,08,32,24.70
2010,07,09,08,33,24.70
2010,07,09,08,34,24.70
2010,07,09,08,35,24.70
2010,07,09,08,36,24.60
2010,07,09,08,37,24.60
2010,07,09,08,38,24.50
2010,07,09,08,39,24.40
2010,07,09,08,40,24.40
2010,07,09,08,41,24.30
2010,07,09,08,42,24.20
2010,07,09,08,43,24.10
2010,07,09,08,44,24.10
2010,07,09,08,45,24.10
2010,07,09,08,46,24.10
2010,07,09,08,47,24.10
2010,07,09,08,48,24.10
2010,07,09,08,49,24.20
2010,07,09,08,50,24.30
2010,07,09,08,51,24.40
2010,07,09,08,52,24.50
2010,07,09,08,53,24.60
2010,07,09,08,54,24.60
2010,07,09,08,55,24.60
2010,07,09,08,56,24.60
2010,07,09,08,57,24.60
2010,07,09,08,58,24.70
2010,07,09,08,59,24.70
2010,07,09,09,00,24.70
2010,07,09,09,01,24.70
2010,07,09,09,02,24.70
2010,07,09,09,03,24.70
2010,07,09,09,04,24.60
2010,07,09,09,05,24.60
2010,07,09,09,06,24.70
2010,07,09,09,07,24.70
2010,07,09,09,08,24.70
2010,07,09,09,09,24.70
2010,07,09,09,10,24.70
2010,07,09,09,11,24.80
2010,07,09,09,12,24.80
2010,07,09,09,13,24.80
2010,07,09,09,14,24.90
2010,07,09,09,15,24.90
2010,07,09,09,16,25.00
2010,07,09,09,17,25.00
2010,07,09,09,18,25.00
2010,07,09,09,19,24.90
2010,07,09,09,20,24.90
2010,07,09,09,21,24.90
2010,07,09,09,22,24.90
2010,07,09,09,23,25.00
2010,07,09,09,24,25.10
2010,07,09,09,25,25.10
2010,07,09,09,26,25.10
2010,07,09,09,27,25.10
2010,07,09,09,28,25.10
2010,07,09,09,29,25.10
2010,07,09,09,30,25.10
2010,07,09,09,31,25.00
2010,07,09,09,32,25.00
2010,07,09,09,33,24.90
2010,07,09,09,34,24.80
2010,07,09,09,35,24.70
2010,07,09,09,36,24.70
2010,07,09,09,37,24.70
2010,07,09,09,38,24.60
2010,07,09,09,39,24.60
2010,07,09,09,40,24.60
2010,07,09,09,41,24.60
2010,07,09,09,42,24.60
2010,07,09,09,43,24.60
2010,07,09,09,44,24.60
2010,07,09,09,45,24.60
2010,07,09,09,46,24.60
2010,07,09,09,47,24.60
2010,07,09,09,48,24.70
2010,07,09,09,49,24.60
2010,07,09,09,50,24.60
2010,07,09,09,51,24.60
2010,07,09,09,52,24.60
2010,07,09,09,53,24.60
2010,07,09,09,54,24.60
2010,07,09,09,55,24.60
2010,07,09,09,56,24.60
2010,07,09,09,57,24.60
2010,07,09,09,58,24.60
2010,07,09,09,59,24.70
2010,07,09,10,00,24.80
2010,07,09,10,01,24.80
2010,07,09,10,02,24.80
2010,07,09,10,03,24.80
2010,07,09,10,04,24.80
2010,07,09,10,05,24.80
2010,07,09,10,06,24.90
2010,07,09,10,07,24.90
2010,07,09,10,08,25.00
2010,07,09,10,09,25.00
2010,07,09,10,10,25.00
2010,07,09,10,11,24.90
2010,07,09,10,12,24.80
2010,07,09,10,13,24.80
2010,07,09,10,14,24.60
2010,07,09,10,15,24.60
2010,07,09,10,16,24.60
2010,07,09,10,17,24.60
2010,07,09,10,18,24.60
2010,07,09,10,19,24.60
2010,07,09,10,20,24.60
2010,07,09,10,21,24.50
2010,07,09,10,22,24.50
2010,07,09,10,23,24.50
2010,07,09,10,24,24.40
2010,07,09,10,25,24.40
2010,07,09,10,26,24.50
2010,07,09,10,27,24.50
2010,07,09,10,28,24.50
2010,07,09,10,29,24.40
2010,07,09,10,30,24.50
2010,07,09,10,31,24.50
2010,07,09,10,32,24.60
2010,07,09,10,33,24.70
2010,07,09,10,34,24.80
2010,07,09,10,35,24.90
2010,07,09,10,36,24.80
2010,07,09,10,37,24.90
2010,07,09,10,38,24.90
2010,07,09,10,39,25.00
2010,07,09,10,40,25.10
2010,07,09,10,41,25.00
2010,07,09,10,42,24.90
2010,07,09,10,43,24.70
2010,07,09,10,44,24.60
2010,07,09,10,45,24.60
2010,07,09,10,46,24.60
2010,07,09,10,47,24.70
2010,07,09,10,48,24.80
2010,07,09,10,49,24.90
2010,07,09,10,50,24.90
2010,07,09,10,51,25.00
2010,07,09,10,52,25.00
2010,07,09,10,53,25.00
2010,07,09,10,54,25.00
2010,07,09,10,55,25.00
2010,07,09,10,56,25.10
2010,07,09,10,57,25.10
2010,07,09,10,58,25.10
2010,07,09,10,59,25.20
2010,07,09,11,00,25.20
2010,07,09,11,01,25.30
2010,07,09,11,02,25.30
2010,07,09,11,03,25.30
2010,07,09,11,04,25.40
2010,07,09,11,05,25.40
2010,07,09,11,06,25.50
2010,07,09,11,07,25.60
2010,07,09,11,08,25.60
2010,07,09,11,09,25.50
2010,07,09,11,10,25.40
2010,07,09,11,11,25.30
2010,07,09,11,12,25.20
2010,07,09,11,13,25.10
2010,07,09,11,14,25.10
2010,07,09,11,15,25.10
2010,07,09,11,16,25.10
2010,07,09,11,17,25.10
2010,07,09,11,18,25.10
2010,07,09,11,19,25.10
2010,07,09,11,20,25.20
2010,07,09,11,21,25.10
2010,07,09,11,22,25.10
2010,07,09,11,23,25.00
2010,07,09,11,24,25.00
2010,07,09,11,25,24.90
2010,07,09,11,26,25.00
2010,07,09,11,27,25.00
2010,07,09,11,28,25.10
2010,07,09,11,29,25.10
2010,07,09,11,30,25.20
2010,07,09,11,31,25.30
2010,07,09,11,32,25.40
2010,07,09,11,33,25.50
2010,07,09,11,34,25.60
2010,07,09,11,35,25.70
2010,07,09,11,36,25.80
2010,07,09,11,37,25.80
2010,07,09,11,38,25.80
2010,07,09,11,39,25.80
2010,07,09,11,40,25.80
2010,07,09,11,41,25.80
2010,07,09,11,42,25.80
2010,07,09,11,43,25.80
2010,07,09,11,44,25.70
2010,07,09,11,45,25.70
2010,07,09,11,46,25.70
2010,07,09,11,47,25.70
2010,07,09,11,48,25.80
2010,07,09,11,49,25.90
2010,07,09,11,50,25.90
2010,07,09,11,51,26.00
2010,07,09,11,52,26.10
2010,07,09,11,53,26.20
2010,07,09,11,54,26.30
2010,07,09,11,55,26.30
2010,07,09,11,56,26.20
2010,07,09,11,57,26.10
2010,07,09,11,58,26.00
2010,07,09,11,59,25.90
2010,07,09,12,00,25.90
2010,07,09,12,01,25.90
2010,07,09,12,02,25.90
2010,07,09,12,03,26.00
2010,07,09,12,04,26.10
2010,07,09,12,05,26.20
2010,07,09,12,06,26.20
2010,07,09,12,07,26.20
2010,07,09,12,08,26.20
2010,07,09,12,09,26.20
2010,07,09,12,10,26.20
2010,07,09,12,11,26.20
2010,07,09,12,12,26.20
2010,07,09,12,13,26.30
2010,07,09,12,14,26.30
2010,07,09,12,15,26.40
2010,07,09,12,16,26.40
2010,07,09,12,17,26.40
2010,07,09,12,18,26.30
2010,07,09,12,19,26.30
2010,07,09,12,20,26.30
2010,07,09,12,21,26.30
2010,07,09,12,22,26.30
2010,07,09,12,23,26.20
2010,07,09,12,24,26.30
2010,07,09,12,25,26.40
2010,07,09,12,26,26.50
2010,07,09,12,27,26.60
2010,07,09,12,28,26.70
2010,07,09,12,29,26.80
2010,07,09,12,30,26.90
2010,07,09,12,31,27.00
2010,07,09,12,32,27.20
2010,07,09,12,33,27.20
2010,07,09,12,34,27.20
2010,07,09,12,35,27.20
2010,07,09,12,36,27.20
2010,07,09,12,37,27.00
2010,07,09,12,38,26.80
2010,07,09,12,39,26.70
2010,07,09,12,40,26.60
2010,07,09,12,41,26.50
2010,07,09,12,42,26.30
2010,07,09,12,43,26.20
2010,07,09,12,44,26.10
2010,07,09,12,45,25.90
2010,07,09,12,46,25.90
2010,07,09,12,47,25.90
2010,07,09,12,48,25.90
2010,07,09,12,49,25.90
2010,07,09,12,50,25.80
2010,07,09,12,51,25.60
2010,07,09,12,52,25.60
2010,07,09,12,53,25.60
2010,07,09,12,54,25.50
2010,07,09,12,55,25.60
2010,07,09,12,56,25.70
2010,07,09,12,57,25.80
2010,07,09,12,58,25.80
2010,07,09,12,59,25.80
2010,07,09,13,00,25.70
2010,07,09,13,01,25.70
2010,07,09,13,02,25.80
2010,07,09,13,03,25.80
2010,07,09,13,04,25.90
2010,07,09,13,05,25.80
2010,07,09,13,06,25.90
2010,07,09,13,07,25.90
2010,07,09,13,08,26.00
2010,07,09,13,09,26.10
2010,07,09,13,10,26.10
2010,07,09,13,11,26.10
2010,07,09,13,12,26.00
2010,07,09,13,13,25.90
2010,07,09,13,14,26.00
2010,07,09,13,15,26.10
2010,07,09,13,16,26.20
2010,07,09,13,17,26.40
2010,07,09,13,18,26.40
2010,07,09,13,19,26.50
2010,07,09,13,20,26.50
2010,07,09,13,21,26.60
2010,07,09,13,22,26.60
2010,07,09,13,23,26.60
2010,07,09,13,24,26.60
2010,07,09,13,25,26.60
2010,07,09,13,26,26.60
2010,07,09,13,27,26.60
2010,07,09,13,28,26.70
2010,07,09,13,29,26.80
2010,07,09,13,30,26.80
2010,07,09,13,31,26.90
2010,07,09,13,32,27.10
2010,07,09,13,33,27.20
2010,07,09,13,34,27.30
2010,07,09,13,35,27.40
2010,07,09,13,36,27.60
2010,07,09,13,37,27.60
2010,07,09,13,38,27.60
2010,07,09,13,39,27.60
2010,07,09,13,40,27.60
2010,07,09,13,41,27.70
2010,07,09,13,42,27.80
2010,07,09,13,43,27.90
2010,07,09,13,44,28.00
2010,07,09,13,45,28.00
2010,07,09,13,46,27.90
2010,07,09,13,47,27.80
2010,07,09,13,48,27.80
2010,07,09,13,49,27.80
2010,07,09,13,50,27.70
2010,07,09,13,51,27.60
2010,07,09,13,52,27.50
2010,07,09,13,53,27.40
2010,07,09,13,54,27.30
2010,07,09,13,55,27.20
2010,07,09,13,56,27.10
2010,07,09,13,57,27.00
2010,07,09,13,58,26.90
2010,07,09,13,59,26.80
2010,07,09,14,00,26.70
2010,07,09,14,01,26.70
2010,07,09,14,02,26.70
2010,07,09,14,03,26.80
2010,07,09,14,04,26.80
2010,07,09,14,05,26.80
2010,07,09,14,06,26.70
2010,07,09,14,07,26.70
2010,07,09,14,08,26.80
2010,07,09,14,09,26.90
2010,07,09,14,10,27.10
2010,07,09,14,11,27.20
2010,07,09,14,12,27.30
2010,07,09,14,13,27.50
2010,07,09,14,14,27.70
2010,07,09,14,15,27.80
2010,07,09,14,16,27.90
2010,07,09,14,17,27.90
2010,07,09,14,18,27.90
2010,07,09,14,19,27.80
2010,07,09,14,20,27.80
2010,07,09,14,21,27.70
2010,07,09,14,22,27.60
2010,07,09,14,23,27.50
2010,07,09,14,24,27.50
2010,07,09,14,25,27.60
2010,07,09,14,26,27.60
2010,07,09,14,27,27.70
2010,07,09,14,28,27.70
2010,07,09,14,29,27.80
2010,07,09,14,30,27.80
2010,07,09,14,31,27.80
2010,07,09,14,32,27.80
2010,07,09,14,33,27.90
2010,07,09,14,34,28.10
2010,07,09,14,35,28.00
2010,07,09,14,36,28.00
2010,07,09,14,37,28.10
2010,07,09,14,38,28.10
2010,07,09,14,39,28.10
2010,07,09,14,40,28.20
2010,07,09,14,41,28.30
2010,07,09,14,42,28.40
2010,07,09,14,43,28.50
2010,07,09,14,44,28.50
2010,07,09,14,45,28.60
2010,07,09,14,46,28.60
2010,07,09,14,47,28.70
2010,07,09,14,48,28.80
2010,07,09,14,49,28.90
2010,07,09,14,50,28.90
2010,07,09,14,51,28.90
2010,07,09,14,52,28.80
2010,07,09,14,53,28.70
2010,07,09,14,54,28.70
2010,07,09,14,55,28.50
2010,07,09,14,56,28.40
2010,07,09,14,57,28.30
2010,07,09,14,58,28.30
2010,07,09,14,59,28.20
2010,07,09,15,00,28.20
2010,07,09,15,01,28.20
2010,07,09,15,02,28.30
2010,07,09,15,03,28.30
2010,07,09,15,04,28.40
2010,07,09,15,05,28.40
2010,07,09,15,06,28.40
2010,07,09,15,07,28.40
2010,07,09,15,08,28.40
2010,07,09,15,09,28.40
2010,07,09,15,10,28.60
2010,07,09,15,11,28.70
2010,07,09,15,12,28.80
2010,07,09,15,13,28.90
2010,07,09,15,14,29.10
2010,07,09,15,15,29.30
2010,07,09,15,16,29.40
2010,07,09,15,17,29.50
2010,07,09,15,18,29.60
2010,07,09,15,19,29.70
2010,07,09,15,20,29.80
2010,07,09,15,21,29.90
2010,07,09,15,22,29.90
2010,07,09,15,23,29.80
2010,07,09,15,24,29.80
2010,07,09,15,25,29.70
2010,07,09,15,26,29.60
2010,07,09,15,27,29.60
2010,07,09,15,28,29.60
2010,07,09,15,29,29.50
2010,07,09,15,30,29.40
2010,07,09,15,31,29.30
2010,07,09,15,32,29.30
2010,07,09,15,33,29.30
2010,07,09,15,34,29.30
2010,07,09,15,35,29.30
2010,07,09,15,36,29.30
2010,07,09,15,37,29.30
2010,07,09,15,38,29.40
2010,07,09,15,39,29.40
2010,07,09,15,40,29.40
2010,07,09,15,41,29.40
2010,07,09,15,42,29.40
2010,07,09,15,43,29.40
2010,07,09,15,44,29.50
2010,07,09,15,45,29.50
2010,07,09,15,46,29.50
2010,07,09,15,47,29.40
2010,07,09,15,48,29.40
2010,07,09,15,49,29.30
2010,07,09,15,50,29.30
2010,07,09,15,51,29.30
2010,07,09,15,52,29.30
2010,07,09,15,53,29.30
2010,07,09,15,54,29.40
2010,07,09,15,55,29.40
2010,07,09,15,56,29.40
2010,07,09,15,57,29.40
2010,07,09,15,58,29.40
2010,07,09,15,59,29.40
2010,07,09,16,00,29.40
2010,07,09,16,01,29.40
2010,07,09,16,02,29.30
2010,07,09,16,03,29.30
2010,07,09,16,04,29.20
2010,07,09,16,05,29.00
2010,07,09,16,06,29.00
2010,07,09,16,07,28.90
2010,07,09,16,08,28.90
2010,07,09,16,09,28.80
2010,07,09,16,10,28.80
2010,07,09,16,11,28.70
2010,07,09,16,12,28.60
2010,07,09,16,13,28.50
2010,07,09,16,14,28.30
2010,07,09,16,15,28.20
2010,07,09,16,16,28.10
2010,07,09,16,17,27.90
2010,07,09,16,18,27.80
2010,07,09,16,19,27.80
2010,07,09,16,20,27.80
2010,07,09,16,21,27.70
2010,07,09,16,22,27.60
2010,07,09,16,23,27.60
2010,07,09,16,24,27.50
2010,07,09,16,25,27.50
2010,07,09,16,26,27.40
2010,07,09,16,27,27.40
2010,07,09,16,28,27.40
2010,07,09,16,29,27.40
2010,07,09,16,30,27.50
2010,07,09,16,31,27.50
2010,07,09,16,32,27.60
2010,07,09,16,33,27.70
2010,07,09,16,34,27.70
2010,07,09,16,35,27.70
2010,07,09,16,36,27.70
2010,07,09,16,37,27.70
2010,07,09,16,38,27.70
2010,07,09,16,39,27.70
2010,07,09,16,40,27.70
2010,07,09,16,41,27.70
2010,07,09,16,42,27.70
2010,07,09,16,43,27.70
2010,07,09,16,44,27.70
2010,07,09,16,45,27.70
2010,07,09,16,46,27.80
2010,07,09,16,47,27.80
2010,07,09,16,48,27.70
2010,07,09,16,49,27.70
2010,07,09,16,50,27.70
2010,07,09,16,51,27.70
2010,07,09,16,52,27.60
2010,07,09,16,53,27.60
2010,07,09,16,54,27.60
2010,07,09,16,55,27.60
2010,07,09,16,56,27.60
2010,07,09,16,57,27.60
2010,07,09,16,58,27.60
2010,07,09,16,59,27.50
2010,07,09,17,00,27.40
2010,07,09,17,01,27.50
2010,07,09,17,02,27.50
2010,07,09,17,03,27.40
2010,07,09,17,04,27.40
2010,07,09,17,05,27.40
2010,07,09,17,06,27.30
2010,07,09,17,07,27.30
2010,07,09,17,08,27.30
2010,07,09,17,09,27.30
2010,07,09,17,10,27.20
2010,07,09,17,11,27.20
2010,07,09,17,12,27.10
2010,07,09,17,13,27.10
2010,07,09,17,14,27.10
2010,07,09,17,15,27.10
2010,07,09,17,16,27.10
2010,07,09,17,17,27.00
2010,07,09,17,18,27.00
2010,07,09,17,19,26.90